Location: Detroit
(42.3310°N, 83.0460°W)
Time: 15:35:54
(UTC-05:00)

X-37B - Pass Details

Date: 04 December 2021
Orbit: 334 x 337 km, 45.0° (Epoch: 11 January)

Event Time Altitude Azimuth Distance (km) Brightness Sun altitude
Rises 18:52:15 0° 211° (SSW) 2,090 4.9 -20.1°
Reaches altitude 10° 18:54:39 10° 190° (S) 1,258 3.4 -20.6°
Enters shadow 18:55:06 12° 182° (S) 1,136 3.1 -20.6°
